| time (UTC) | temp C | wind direction | speed KPH | gust KPH | rain 1hr cm | rain 24hr cm | rain mn cm | humidity % | barometer mb |
| 20260504215113 | 17 | 105 | 6.4 | 16.1 | 0.00 | 0.00 | 0.00 | 43 | 1005.7 |
| 20260504214606 | 17 | 148 | 8.0 | 16.1 | 0.00 | 0.00 | 0.00 | 43 | 1005.7 |
| 20260504214050 | 17 | 139 | 6.4 | 19.3 | 0.00 | 0.00 | 0.00 | 44 | 1005.6 |
| 20260504213542 | 17 | 110 | 8.0 | 19.3 | 0.00 | 0.00 | 0.00 | 43 | 1005.5 |
| 20260504213030 | 17 | 135 | 8.0 | 14.5 | 0.00 | 0.00 | 0.00 | 42 | 1005.6 |
| 20260504212526 | 18 | 87 | 8.0 | 20.9 | 0.00 | 0.00 | 0.00 | 41 | 1005.5 |
| 20260504212121 | 18 | 92 | 9.7 | 20.9 | 0.00 | 0.00 | 0.00 | 41 | 1005.6 |
| 20260504211606 | 18 | 175 | 8.0 | 20.9 | 0.00 | 0.00 | 0.00 | 41 | 1005.5 |
| 20260504211059 | 18 | 68 | 6.4 | 19.3 | 0.00 | 0.00 | 0.00 | 41 | 1005.5 |
| 20260504210542 | 18 | 79 | 8.0 | 17.7 | 0.00 | 0.00 | 0.00 | 41 | 1005.5 |
| 20260504210030 | 18 | 118 | 6.4 | 22.5 | 0.00 | 0.00 | 0.00 | 41 | 1005.5 |
| 20260504205519 | 18 | 113 | 8.0 | 25.7 | 0.00 | 0.00 | 0.00 | 39 | 1005.5 |
| 20260504205111 | 19 | 134 | 8.0 | 12.9 | 0.00 | 0.00 | 0.00 | 39 | 1005.5 |
| 20260504204559 | 19 | 50 | 4.8 | 19.3 | 0.00 | 0.00 | 0.00 | 40 | 1005.5 |
| 20260504204106 | 19 | 155 | 4.8 | 16.1 | 0.00 | 0.00 | 0.00 | 39 | 1005.5 |
| 20260504203614 | 19 | 163 | 8.0 | 16.1 | 0.00 | 0.00 | 0.00 | 39 | 1005.5 |
| 20260504203022 | 19 | 148 | 6.4 | 17.7 | 0.00 | 0.00 | 0.00 | 39 | 1005.6 |
| 20260504202611 | 19 | 144 | 6.4 | 22.5 | 0.00 | 0.00 | 0.00 | 39 | 1005.5 |
| 20260504202102 | 19 | 160 | 4.8 | 12.9 | 0.00 | 0.00 | 0.00 | 38 | 1005.4 |
| 20260504201550 | 19 | 129 | 4.8 | 20.9 | 0.00 | 0.00 | 0.00 | 38 | 1005.4 |
| 20260504201040 | 19 | 161 | 9.7 | 19.3 | 0.00 | 0.00 | 0.00 | 37 | 1005.4 |
| 20260504200534 | 19 | 140 | 8.0 | 17.7 | 0.00 | 0.00 | 0.00 | 38 | 1005.4 |
| 20260504200022 | 19 | 127 | 6.4 | 22.5 | 0.00 | 0.00 | 0.00 | 38 | 1005.5 |
| 20260504195654 | 19 | 169 | 12.9 | 24.1 | 0.00 | 0.00 | 0.00 | 37 | 1005.6 |
| 20260504195101 | 20 | 179 | 9.7 | 24.1 | 0.00 | 0.00 | 0.00 | 37 | 1005.5 |
| 20260504194552 | 19 | 171 | 8.0 | 17.7 | 0.00 | 0.00 | 0.00 | 37 | 1005.5 |
| 20260504194046 | 19 | 171 | 6.4 | 20.9 | 0.00 | 0.00 | 0.00 | 37 | 1005.5 |
| 20260504193534 | 20 | 148 | 11.3 | 20.9 | 0.00 | 0.00 | 0.00 | 36 | 1005.5 |
| 20260504193031 | 20 | 182 | 8.0 | 24.1 | 0.00 | 0.00 | 0.00 | 35 | 1005.5 |
| 20260504192522 | 20 | 175 | 6.4 | 20.9 | 0.00 | 0.00 | 0.00 | 37 | 1005.4 |
| 20260504192118 | 20 | 145 | 6.4 | 16.1 | 0.00 | 0.00 | 0.00 | 35 | 1005.4 |
| 20260504191608 | 20 | 166 | 8.0 | 25.7 | 0.00 | 0.00 | 0.00 | 35 | 1005.5 |
| 20260504191054 | 20 | 115 | 8.0 | 17.7 | 0.00 | 0.00 | 0.00 | 34 | 1005.5 |
| 20260504190541 | 20 | 129 | 6.4 | 14.5 | 0.00 | 0.00 | 0.00 | 34 | 1005.5 |
| 20260504190038 | 19 | 192 | 4.8 | 22.5 | 0.00 | 0.00 | 0.00 | 35 | 1005.5 |
| 20260504185528 | 20 | 118 | 8.0 | 20.9 | 0.00 | 0.00 | 0.00 | 34 | 1005.5 |
| 20260504185019 | 20 | 164 | 8.0 | 16.1 | 0.00 | 0.00 | 0.00 | 33 | 1005.7 |
| 20260504184614 | 20 | 205 | 4.8 | 16.1 | 0.00 | 0.00 | 0.00 | 34 | 1005.7 |
| 20260504184102 | 20 | 124 | 8.0 | 16.1 | 0.00 | 0.00 | 0.00 | 34 | 1005.7 |
| 20260504183549 | 20 | 194 | 4.8 | 16.1 | 0.00 | 0.00 | 0.00 | 35 | 1005.8 |
| 20260504183038 | 19 | 177 | 11.3 | 20.9 | 0.00 | 0.00 | 0.00 | 33 | 1005.7 |
| 20260504182529 | 19 | 177 | 9.7 | 17.7 | 0.00 | 0.00 | 0.00 | 33 | 1005.9 |
| 20260504182023 | 19 | 174 | 6.4 | 19.3 | 0.00 | 0.00 | 0.00 | 34 | 1005.9 |
| 20260504181518 | 19 | 157 | 9.7 | 24.1 | 0.00 | 0.00 | 0.00 | 34 | 1006.0 |
| 20260504181111 | 20 | 186 | 12.9 | 22.5 | 0.00 | 0.00 | 0.00 | 33 | 1006.1 |
| 20260504180552 | 19 | 191 | 4.8 | 16.1 | 0.00 | 0.00 | 0.00 | 34 | 1006.1 |
| 20260504180047 | 19 | 134 | 11.3 | 22.5 | 0.00 | 0.00 | 0.00 | 34 | 1006.3 |
| 20260504175536 | 19 | 154 | 8.0 | 14.5 | 0.00 | 0.00 | 0.00 | 34 | 1006.2 |
| 20260504175022 | 18 | 203 | 11.3 | 24.1 | 0.00 | 0.00 | 0.00 | 34 | 1006.3 |
| 20260504174518 | 18 | 172 | 8.0 | 24.1 | 0.00 | 0.00 | 0.00 | 34 | 1006.4 |
| 20260504174102 | 18 | 185 | 9.7 | 17.7 | 0.00 | 0.00 | 0.00 | 33 | 1006.5 |
| 20260504173558 | 19 | 168 | 8.0 | 24.1 | 0.00 | 0.00 | 0.00 | 34 | 1006.5 |
| 20260504173044 | 19 | 196 | 9.7 | 17.7 | 0.00 | 0.00 | 0.00 | 34 | 1006.5 |
| 20260504172534 | 18 | 162 | 12.9 | 20.9 | 0.00 | 0.00 | 0.00 | 34 | 1006.4 |
| 20260504172019 | 18 | 157 | 6.4 | 20.9 | 0.00 | 0.00 | 0.00 | 34 | 1006.5 |
| 20260504171614 | 18 | 164 | 9.7 | 22.5 | 0.00 | 0.00 | 0.00 | 34 | 1006.4 |
| 20260504171103 | 18 | 51 | 8.0 | 22.5 | 0.00 | 0.00 | 0.00 | 34 | 1006.4 |
| 20260504170558 | 18 | 199 | 8.0 | 20.9 | 0.00 | 0.00 | 0.00 | 35 | 1006.4 |
| 20260504160118 | 18 | 254 | 9.7 | 22.5 | 0.00 | 0.00 | 0.00 | 34 | 1007.0 |
| 20260504151054 | 17 | 212 | 8.0 | 17.7 | 0.00 | 0.00 | 0.00 | 36 | 1007.6 |
| 20260504150542 | 17 | 192 | 8.0 | 20.9 | 0.00 | 0.00 | 0.00 | 35 | 1007.6 |
| 20260504141111 | 16 | 228 | 6.4 | 19.3 | 0.00 | 0.00 | 0.00 | 37 | 1008.1 |
| 20260504140600 | 16 | 259 | 9.7 | 20.9 | 0.00 | 0.00 | 0.00 | 37 | 1008.2 |
| 20260504140129 | 16 | 261 | 6.4 | 20.9 | 0.00 | 0.00 | 0.00 | 39 | 1008.2 |
| 20260504130519 | 13 | 281 | 8.0 | 14.5 | 0.00 | 0.00 | 0.00 | 44 | 1008.6 |
| 20260504130111 | 13 | 300 | 6.4 | 12.9 | 0.00 | 0.00 | 0.00 | 45 | 1008.6 |
| 20260504110618 | 8 | 252 | 3.2 | 9.7 | 0.00 | 0.00 | 0.00 | 54 | 1008.5 |
| 20260504110104 | 8 | 267 | 3.2 | 6.4 | 0.00 | 0.00 | 0.00 | 55 | 1008.6 |
| 20260504100536 | 7 | 260 | 1.6 | 9.7 | 0.00 | 0.00 | 0.00 | 54 | 1008.4 |
| 20260504081610 | 5 | 110 | 4.8 | 8.0 | 0.00 | 0.00 | 0.00 | 68 | 1007.7 |
| 20260504081057 | 5 | 146 | 4.8 | 8.0 | 0.00 | 0.00 | 0.00 | 71 | 1007.8 |
| 20260504080551 | 5 | 319 | 1.6 | 6.4 | 0.00 | 0.00 | 0.00 | 74 | 1007.9 |
| 20260504070112 | 4 | 125 | 0.0 | 3.2 | 0.00 | 0.00 | 0.00 | 77 | 1007.8 |
| 20260504060111 | 2 | 0.0 | 3.2 | 0.00 | 0.00 | 0.00 | 67 | 1007.8 | |
| 20260504050612 | 3 | 130 | 1.6 | 3.2 | 0.00 | 0.00 | 0.00 | 66 | 1007.8 |
| 20260504045545 | 3 | 0.0 | 3.2 | 0.00 | 0.00 | 0.00 | 64 | 1007.8 | |
| 20260504045040 | 3 | 0.0 | 3.2 | 0.00 | 0.00 | 0.00 | 63 | 1007.9 | |
| 20260504044555 | 3 | 90 | 1.6 | 3.2 | 0.00 | 0.00 | 0.00 | 63 | 1007.8 |
| 20260504044027 | 4 | 47 | 1.6 | 3.2 | 0.00 | 0.00 | 0.00 | 59 | 1007.9 |
| 20260504043518 | 4 | 99 | 3.2 | 3.2 | 0.00 | 0.00 | 0.00 | 59 | 1007.9 |
| 20260504043150 | 4 | 91 | 1.6 | 3.2 | 0.00 | 0.00 | 0.00 | 60 | 1007.9 |
| 20260504042603 | 4 | 104 | 1.6 | 3.2 | 0.00 | 0.00 | 0.00 | 56 | 1007.9 |
| 20260504042056 | 5 | 119 | 1.6 | 3.2 | 0.00 | 0.00 | 0.00 | 59 | 1008.0 |
| 20260504041611 | 5 | 0.0 | 3.2 | 0.00 | 0.00 | 0.00 | 56 | 1007.9 | |
| 20260504041038 | 5 | 81 | 0.0 | 3.2 | 0.00 | 0.00 | 0.00 | 54 | 1007.7 |
| 20260504040528 | 5 | 116 | 1.6 | 3.2 | 0.00 | 0.00 | 0.00 | 50 | 1007.7 |
| 20260504040026 | 5 | 117 | 1.6 | 4.8 | 0.00 | 0.00 | 0.00 | 50 | 1007.7 |
| 20260504035519 | 5 | 126 | 3.2 | 4.8 | 0.00 | 0.00 | 0.00 | 51 | 1007.5 |
| 20260504035111 | 5 | 110 | 1.6 | 3.2 | 0.00 | 0.00 | 0.00 | 50 | 1007.7 |
| 20260504034559 | 5 | 129 | 4.8 | 6.4 | 0.00 | 0.00 | 0.00 | 52 | 1007.6 |
| 20260504034046 | 5 | 127 | 3.2 | 6.4 | 0.00 | 0.00 | 0.00 | 57 | 1007.6 |
| 20260504033631 | 5 | 133 | 1.6 | 3.2 | 0.00 | 0.00 | 0.00 | 53 | 1007.7 |
| 20260504033021 | 6 | 140 | 3.2 | 3.2 | 0.00 | 0.00 | 0.00 | 52 | 1007.6 |
| 20260504032613 | 6 | 132 | 3.2 | 3.2 | 0.00 | 0.00 | 0.00 | 48 | 1007.6 |
| 20260504032124 | 6 | 132 | 3.2 | 4.8 | 0.00 | 0.00 | 0.00 | 48 | 1007.6 |
| 20260504031550 | 6 | 119 | 3.2 | 3.2 | 0.00 | 0.00 | 0.00 | 48 | 1007.6 |
| 20260504031033 | 6 | 116 | 3.2 | 4.8 | 0.00 | 0.00 | 0.00 | 48 | 1007.6 |
| 20260504030529 | 6 | 124 | 3.2 | 4.8 | 0.00 | 0.00 | 0.00 | 48 | 1007.5 |
| 20260504030020 | 6 | 123 | 3.2 | 4.8 | 0.00 | 0.00 | 0.00 | 48 | 1007.5 |
| 20260504025612 | 6 | 108 | 3.2 | 4.8 | 0.00 | 0.00 | 0.00 | 49 | 1007.5 |
| 20260504025055 | 6 | 109 | 3.2 | 4.8 | 0.00 | 0.00 | 0.00 | 49 | 1007.4 |
| 20260504024613 | 6 | 129 | 4.8 | 4.8 | 0.00 | 0.00 | 0.00 | 49 | 1007.5 |
| 20260504024040 | 6 | 127 | 3.2 | 4.8 | 0.00 | 0.00 | 0.00 | 48 | 1007.5 |
| 20260504023534 | 6 | 126 | 3.2 | 4.8 | 0.00 | 0.00 | 0.00 | 48 | 1007.5 |
| 20260504023102 | 6 | 121 | 3.2 | 4.8 | 0.00 | 0.00 | 0.00 | 48 | 1007.4 |
| 20260504022614 | 6 | 123 | 3.2 | 4.8 | 0.00 | 0.00 | 0.00 | 48 | 1007.4 |
| 20260504021559 | 6 | 126 | 3.2 | 6.4 | 0.00 | 0.00 | 0.00 | 47 | 1007.3 |
| 20260504021046 | 6 | 123 | 3.2 | 4.8 | 0.00 | 0.00 | 0.00 | 46 | 1007.2 |
| 20260504020537 | 7 | 115 | 3.2 | 4.8 | 0.00 | 0.00 | 0.00 | 46 | 1007.2 |
| 20260504020031 | 7 | 120 | 3.2 | 3.2 | 0.00 | 0.00 | 0.00 | 45 | 1007.2 |
| 20260504015518 | 7 | 118 | 1.6 | 4.8 | 0.00 | 0.00 | 0.00 | 45 | 1007.2 |
| 20260504015110 | 7 | 115 | 1.6 | 3.2 | 0.00 | 0.00 | 0.00 | 45 | 1007.2 |
| 20260504014559 | 7 | 114 | 1.6 | 4.8 | 0.00 | 0.00 | 0.00 | 45 | 1007.1 |
| 20260504014057 | 7 | 125 | 3.2 | 4.8 | 0.00 | 0.00 | 0.00 | 45 | 1007.2 |
| 20260504013545 | 7 | 120 | 3.2 | 4.8 | 0.00 | 0.00 | 0.00 | 44 | 1007.1 |
| 20260504013056 | 7 | 127 | 3.2 | 4.8 | 0.00 | 0.00 | 0.00 | 45 | 1007.0 |
| 20260504012522 | 7 | 129 | 3.2 | 6.4 | 0.00 | 0.00 | 0.00 | 44 | 1007.0 |
| 20260504012037 | 7 | 124 | 3.2 | 4.8 | 0.00 | 0.00 | 0.00 | 44 | 1006.8 |
| 20260504011607 | 7 | 126 | 3.2 | 4.8 | 0.00 | 0.00 | 0.00 | 44 | 1006.9 |
| 20260504011059 | 7 | 112 | 3.2 | 3.2 | 0.00 | 0.00 | 0.00 | 44 | 1006.8 |
| 20260504010557 | 7 | 126 | 3.2 | 4.8 | 0.00 | 0.00 | 0.00 | 45 | 1006.8 |
| 20260504010048 | 7 | 132 | 3.2 | 4.8 | 0.00 | 0.00 | 0.00 | 45 | 1006.6 |
| 20260504005539 | 7 | 125 | 3.2 | 4.8 | 0.00 | 0.00 | 0.00 | 45 | 1006.4 |
| 20260504005031 | 7 | 121 | 3.2 | 4.8 | 0.00 | 0.00 | 0.00 | 45 | 1006.4 |
| 20260504004521 | 7 | 114 | 3.2 | 4.8 | 0.00 | 0.00 | 0.00 | 46 | 1006.2 |
| 20260504004116 | 7 | 114 | 3.2 | 3.2 | 0.00 | 0.00 | 0.00 | 48 | 1006.1 |
| 20260504003607 | 7 | 88 | 1.6 | 3.2 | 0.00 | 0.00 | 0.00 | 47 | 1006.2 |
| 20260504003055 | 7 | 96 | 1.6 | 3.2 | 0.00 | 0.00 | 0.00 | 47 | 1006.0 |
| 20260504002543 | 7 | 90 | 1.6 | 3.2 | 0.00 | 0.00 | 0.00 | 45 | 1006.0 |
| 20260504002031 | 7 | 93 | 1.6 | 3.2 | 0.00 | 0.00 | 0.00 | 45 | 1006.0 |
| 20260504001526 | 7 | 95 | 1.6 | 3.2 | 0.00 | 0.00 | 0.00 | 46 | 1005.9 |
| 20260504001023 | 7 | 92 | 1.6 | 3.2 | 0.00 | 0.00 | 0.00 | 46 | 1005.9 |
| 20260504000516 | 7 | 90 | 1.6 | 3.2 | 0.00 | 0.00 | 0.00 | 45 | 1005.9 |
| 20260504000111 | 7 | 91 | 1.6 | 3.2 | 0.00 | 0.00 | 0.00 | 45 | 1005.8 |
| 20260503235601 | 8 | 89 | 1.6 | 3.2 | 0.00 | 0.00 | 0.00 | 46 | 1005.8 |
| 20260503235050 | 8 | 89 | 1.6 | 3.2 | 0.00 | 0.00 | 0.00 | 44 | 1005.7 |
| 20260503234546 | 8 | 90 | 1.6 | 3.2 | 0.00 | 0.00 | 0.00 | 44 | 1005.7 |
| 20260503234039 | 9 | 112 | 1.6 | 3.2 | 0.00 | 0.00 | 0.00 | 45 | 1005.7 |
| 20260503233546 | 10 | 99 | 1.6 | 3.2 | 0.00 | 0.00 | 0.00 | 44 | 1005.6 |
| 20260503233111 | 10 | 49 | 1.6 | 3.2 | 0.00 | 0.00 | 0.00 | 42 | 1005.7 |
| 20260503232620 | 10 | 309 | 1.6 | 3.2 | 0.00 | 0.00 | 0.00 | 39 | 1005.7 |
| 20260503232055 | 11 | 309 | 3.2 | 4.8 | 0.00 | 0.00 | 0.00 | 37 | 1005.6 |
| 20260503231546 | 11 | 303 | 3.2 | 4.8 | 0.00 | 0.00 | 0.00 | 37 | 1005.5 |
| 20260503231041 | 10 | 300 | 4.8 | 8.0 | 0.00 | 0.00 | 0.00 | 38 | 1005.6 |
| 20260503230527 | 10 | 291 | 4.8 | 11.3 | 0.00 | 0.00 | 0.00 | 38 | 1005.4 |
| 20260503230020 | 11 | 297 | 4.8 | 9.7 | 0.00 | 0.00 | 0.00 | 37 | 1005.5 |
| 20260503225618 | 11 | 299 | 6.4 | 14.5 | 0.00 | 0.00 | 0.00 | 38 | 1005.4 |
| 20260503225105 | 11 | 299 | 6.4 | 14.5 | 0.00 | 0.00 | 0.00 | 37 | 1005.4 |
| 20260503224556 | 11 | 289 | 8.0 | 14.5 | 0.00 | 0.00 | 0.00 | 37 | 1005.4 |
| 20260503224047 | 11 | 292 | 8.0 | 14.5 | 0.00 | 0.00 | 0.00 | 37 | 1005.3 |
| 20260503223537 | 11 | 308 | 4.8 | 17.7 | 0.00 | 0.00 | 0.00 | 38 | 1005.2 |
| 20260503223053 | 11 | 288 | 6.4 | 20.9 | 0.00 | 0.00 | 0.00 | 37 | 1005.3 |
| 20260503222517 | 11 | 320 | 4.8 | 9.7 | 0.00 | 0.00 | 0.00 | 40 | 1005.1 |
| 20260503222113 | 11 | 43 | 1.6 | 6.4 | 0.00 | 0.00 | 0.00 | 39 | 1005.1 |
| 20260503221559 | 11 | 338 | 4.8 | 24.1 | 0.00 | 0.00 | 0.00 | 38 | 1005.1 |
| 20260503221055 | 11 | 294 | 6.4 | 24.1 | 0.00 | 0.00 | 0.00 | 39 | 1005.1 |
| 20260503220545 | 11 | 294 | 8.0 | 19.3 | 0.00 | 0.00 | 0.00 | 38 | 1005.3 |
| 20260503220036 | 11 | 299 | 6.4 | 14.5 | 0.00 | 0.00 | 0.00 | 39 | 1005.1 |
| 20260503215556 | 11 | 292 | 8.0 | 17.7 | 0.00 | 0.00 | 0.00 | 39 | 1005.2 |